Location: Castle Hill Houses
(40.8186°N, 73.8497°W)
Time: 21:58:38
(UTC+00:00)

SL-8 Rocket - Pass Details

Date: 26 January 2020
Orbit: 956 x 991 km, 82.9° (Epoch: 17 February)

Event Time Altitude Azimuth Distance (km) Brightness Sun altitude
Rises 09:49:26 0° 355° (N) 3,664 6.9 -26.8°
Reaches altitude 10° 09:51:59 10° 358° (N) 2,709 6.3 -26.3°
Maximum altitude 09:58:08 65° 81° (E) 1,048 4.3 -25.2°
Drops below altitude 10° 10:04:13 10° 163° (SSE) 2,679 6.5 -24.0°
Sets 10:06:43 0° 166° (SSE) 3,620 7.2 -23.5°
